NIMBUS 2 DEB, 28206

Orbit data source: Space-Track

NIMBUS 2 DEB, 28206 is space debris in SSO originally from a launch on Sun, 15 May 1966 UTC launched from the Air Force Western Test Range (AFWTR). Debris objects in space refer to the collection of defunct objects orbiting the Earth. Examples of debris include non-operational satellites, rocket bodies, and fragments generated from explosions, collisions, or faulty payload assembly.

Loading next visibility...
Identifier
28206, 1966-040U
Orbit
SSO
Country
Flag of USUS
Related business
Manufacturer
Unknown
Mission
Spacecraft
Bus & Motor
Unknown
Mass
Unknown
Launch date (UTC)
1966-05-15 (59 years ago)
Launch vehicle
Unknown
Launch site
Air Force Western Test Range (AFWTR)
Object type
Payload
Rocket body
Debris
Shape & HBR
Unknown shape, 0.1 m
Radar Cross Section
Small (<0.1 m²)

Expand to show TLE details & history
Last TLE update: 13 hours ago

TLE from 13 hours ago
0 NIMBUS 2 DEB
1 28206U 66040U   25286.89709127  .00001624  00000-0  26882-2 0  9991
2 28206 100.3698 164.6278 0047794 264.3569 108.8438 13.48127198 58804
Epoch: 2025-10-13T21:31Z
TLE epoch observation values (Epoch: 2025-10-13T21:31:48.685Z)
Latitude
13.45809°
Longitude
176.48473°
Altitude
1,092.843 km
Speed
7.301 km/s
True Right ascension
10h 48m 31s
True Declination
13° 23' 02"
Sunlit
Object was in daylight at epoch
Visualization orbit readout
Latitude
Unknown
Longitude
Unknown
Altitude
Unknown
Speed
Unknown
Apparent Right ascension
Unknown
Apparent Declination
Unknown
Sunlit
N/A
Visualization observer readout
Local Sidereal Time
04:40:18
Azimuth
Unknown
Elevation
Unknown
Doppler factor
Unknown
Orbital elements
Apogee altitude
1,112.125 km
Perigee altitude
1,040.868 km
Semi-major axis
7,454.633 km
Eccentricity
0.00478
Inclination
100.3698°
RAAN
164.6278°
Arg. of periapsis
264.3569°
True anomaly
109.36112°
Mean anomaly
108.8438°
Eccentric anomaly
109.10256°
Mean motion
3.37213 °/min
Orbital period
106.76 mins
BSTAR
0.0026882
Loading maneuver chart data...
Computing Atmospheric mass density...
Loading historical data...
Loading historical data...
Loading historical data...
Loading historical data...
Loading historical data...
Loading historical data...
Loading historical data...

Documentation

Showing up to 5 results
|